Date String (YYYY-MM-DD hh:mm:ss) UTC,Instrument flags,Ambient pressure (hPa),Sample flow (lpm),Bypass flow (lpm),Sample temperature (°C),Ambient temperature (°C),ASC tube jacket temperature (°C),LED temperature (°C),Box temperature (°C),Sample RH (%),Span deviation,Mass concentration (μg/m³),Mass concentration (μg/m³),Mass concentration (μg/m³)
DateTimeUTC,F1_M11,P_M11,Q1_M11,Q2_M11,T1_M11,T2_M11,T3_M11,T4_M11,T5_M11,U1_M11,ZSPAN_M11,X0_M11,X2_M11,X1_M11
2022-11-25 10:00:00,,0835.0,5.00,0.00,22.1,20.8,00.0,31.0,24.0,10.3,0000.0,0000.68,0000.50,0000.45
2022-11-25 10:01:00,,0834.9,5.00,0.00,22.1,20.8,00.0,31.0,23.9,10.3,0000.0,0000.68,0000.50,0000.45
2022-11-25 10:02:00,,0835.0,5.00,0.00,22.1,20.8,00.0,31.0,23.9,10.3,0000.0,0000.68,0000.50,0000.45
2022-11-25 10:03:00,,0835.0,5.00,0.00,22.1,20.7,00.0,31.0,23.9,10.3,0000.0,0000.69,0000.49,0000.44
2022-11-25 10:04:00,,0835.0,5.00,0.00,22.1,20.7,00.0,31.0,23.9,10.2,0000.0,0000.70,0000.50,0000.45
2022-11-25 10:05:00,,0834.9,5.00,0.00,22.1,20.7,00.0,31.0,23.9,10.3,0000.0,0000.71,0000.52,0000.46
2022-11-25 10:06:00,,0834.9,5.00,0.00,22.0,20.7,00.0,31.0,23.9,10.3,0000.0,0000.72,0000.52,0000.46
2022-11-25 10:07:00,,0835.0,5.00,0.00,22.0,20.7,00.0,31.0,23.8,10.4,0000.0,0000.77,0000.53,0000.46
2022-11-25 10:08:00,,0835.0,5.00,0.00,22.0,20.6,00.0,31.0,23.9,10.4,0000.0,0000.81,0000.54,0000.46
2022-11-25 10:09:00,,0834.9,5.00,0.00,22.0,20.6,00.0,31.0,23.8,10.2,0000.0,0000.88,0000.54,0000.46
2022-11-25 10:10:00,,0835.0,5.00,0.00,22.0,20.9,00.0,30.9,23.9,10.2,0000.0,0000.92,0000.55,0000.46
2022-11-25 10:11:00,,0835.0,5.00,0.00,22.1,21.8,00.0,30.9,24.1,10.3,0000.0,0000.85,0000.52,0000.45
2022-11-25 10:12:00,,0835.0,4.99,0.00,22.2,22.4,00.0,30.9,24.2,10.2,0000.0,0000.81,0000.51,0000.45
2022-11-25 10:13:00,,0835.0,4.99,0.00,22.3,22.2,00.0,31.0,24.3,10.2,0000.0,0000.81,0000.51,0000.45
2022-11-25 10:14:00,,0835.0,5.00,0.00,22.3,21.9,00.0,31.0,24.2,10.2,0000.0,0000.79,0000.50,0000.45
2022-11-25 10:15:00,,0834.9,5.01,0.00,22.3,21.6,00.0,31.1,24.2,10.2,0000.0,0000.82,0000.52,0000.46
2022-11-25 10:16:00,,0834.9,5.01,0.00,22.2,21.4,00.0,31.1,24.2,10.2,0000.0,0000.83,0000.52,0000.45
2022-11-25 10:17:00,,0834.9,4.99,0.00,22.2,21.2,00.0,31.1,24.1,10.2,0000.0,0000.87,0000.53,0000.45
2022-11-25 10:18:00,,0834.9,4.99,0.00,22.2,21.1,00.0,31.1,24.1,10.2,0000.0,0000.85,0000.53,0000.45
2022-11-25 10:19:00,,0834.9,5.01,0.00,22.2,21.0,00.0,31.1,24.0,10.1,0000.0,0000.85,0000.53,0000.45
2022-11-25 10:20:00,,0834.9,5.00,0.00,22.2,20.9,00.0,31.1,24.0,10.1,0000.0,0000.78,0000.53,0000.45
2022-11-25 10:21:00,,0835.0,5.00,0.00,22.2,20.9,00.0,31.1,24.0,10.1,0000.0,0000.79,0000.54,0000.45
2022-11-25 10:22:00,,0835.0,5.00,0.00,22.2,20.8,00.0,31.1,24.0,10.1,0000.0,0000.88,0000.57,0000.45
2022-11-25 10:23:00,,0835.0,5.00,0.00,22.2,20.8,00.0,31.1,24.0,10.1,0000.0,0002.36,0000.61,0000.46
2022-11-25 10:24:00,,0834.9,5.00,0.00,22.1,20.8,00.0,31.1,24.0,10.1,0000.0,0002.58,0000.62,0000.45
2022-11-25 10:25:00,,0835.0,4.99,0.00,22.1,20.8,00.0,31.1,24.0,10.1,0000.0,0002.58,0000.62,0000.46
2022-11-25 10:26:00,,0835.0,5.00,0.00,22.1,20.7,00.0,31.1,24.0,10.1,0000.0,0002.58,0000.61,0000.45
2022-11-25 10:27:00,,0835.0,5.00,0.00,22.1,20.7,00.0,31.1,23.9,10.1,0000.0,0002.55,0000.60,0000.46
2022-11-25 10:28:00,,0835.0,5.00,0.00,22.1,20.7,00.0,31.1,23.9,10.1,0000.0,0002.53,0000.59,0000.45
2022-11-25 10:29:00,,0835.0,5.00,0.00,22.1,20.7,00.0,31.0,23.9,10.0,0000.0,0002.52,0000.58,0000.45
2022-11-25 10:30:00,,0835.0,5.00,0.00,22.1,20.7,00.0,31.0,23.9,10.0,0000.0,0002.49,0000.57,0000.45
2022-11-25 10:31:00,,0835.0,5.00,0.00,22.1,20.7,00.0,31.0,23.9,10.0,0000.0,0002.47,0000.57,0000.46
2022-11-25 10:32:00,,0835.0,5.00,0.00,22.1,20.6,00.0,31.0,23.9,10.0,0000.0,0002.42,0000.55,0000.45
2022-11-25 10:33:00,,0834.9,5.00,0.00,22.0,20.6,00.0,31.0,23.8,10.0,0000.0,0002.34,0000.53,0000.45
2022-11-25 10:34:00,,0834.9,5.00,0.00,22.1,21.3,00.0,31.0,24.0,10.0,0000.0,0001.01,0000.52,0000.46
2022-11-25 10:35:00,,0835.0,4.99,0.00,22.2,22.2,00.0,30.9,24.2,09.9,0000.0,0000.72,0000.53,0000.46
2022-11-25 10:36:00,,0834.9,4.99,0.00,22.3,22.3,00.0,31.0,24.3,09.8,0000.0,0000.74,0000.53,0000.46
2022-11-25 10:37:00,,0835.0,5.01,0.00,22.3,21.9,00.0,31.0,24.3,09.7,0000.0,0000.75,0000.54,0000.45
2022-11-25 10:38:00,,0834.9,5.01,0.00,22.3,21.7,00.0,31.1,24.2,09.7,0000.0,0000.77,0000.54,0000.44
2022-11-25 10:39:00,,0834.9,4.99,0.00,22.3,21.4,00.0,31.1,24.2,09.6,0000.0,0000.75,0000.53,0000.44
2022-11-25 10:40:00,,0834.9,4.99,0.00,22.3,21.3,00.0,31.1,24.2,09.6,0000.0,0000.97,0000.56,0000.45
2022-11-25 10:41:00,,0834.9,5.01,0.00,22.3,21.1,00.0,31.1,24.1,09.5,0000.0,0001.48,0000.56,0000.45
2022-11-25 10:42:00,,0834.9,5.01,0.00,22.2,21.0,00.0,31.1,24.1,09.6,0000.0,0001.47,0000.55,0000.44
2022-11-25 10:43:00,,0834.9,5.00,0.00,22.2,21.0,00.0,31.1,24.1,09.6,0000.0,0001.47,0000.55,0000.44
2022-11-25 10:44:00,,0834.8,5.00,0.00,22.2,20.9,00.0,31.1,24.1,09.5,0000.0,0001.43,0000.53,0000.44
2022-11-25 10:45:00,,0834.9,4.99,0.00,22.2,20.8,00.0,31.1,24.0,09.5,0000.0,0001.41,0000.50,0000.43
2022-11-25 10:46:00,,0834.9,4.99,0.00,22.2,20.8,00.0,31.1,24.0,09.5,0000.0,0001.45,0000.50,0000.43
2022-11-25 10:47:00,,0834.9,5.01,0.00,22.2,20.7,00.0,31.1,24.0,09.5,0000.0,0001.51,0000.50,0000.43
2022-11-25 10:48:00,,0834.9,5.00,0.00,22.1,20.7,00.0,31.1,24.0,09.4,0000.0,0001.52,0000.50,0000.43
2022-11-25 10:49:00,,0834.9,5.00,0.00,22.1,20.7,00.0,31.1,23.9,09.5,0000.0,0001.52,0000.51,0000.43
2022-11-25 10:50:00,,0834.9,5.01,0.00,22.1,20.6,00.0,31.1,23.9,09.5,0000.0,0001.54,0000.51,0000.43
2022-11-25 10:51:00,,0834.9,5.00,0.00,22.1,20.6,00.0,31.1,23.9,09.4,0000.0,0001.33,0000.49,0000.43
2022-11-25 10:52:00,,0834.9,5.00,0.00,22.1,20.6,00.0,31.1,23.9,09.4,0000.0,0000.83,0000.49,0000.42
2022-11-25 10:53:00,,0834.9,5.00,0.00,22.1,20.5,00.0,31.1,23.9,09.5,0000.0,0000.84,0000.49,0000.43
2022-11-25 10:54:00,,0834.9,4.99,0.00,22.0,20.5,00.0,31.1,23.9,09.4,0000.0,0000.93,0000.51,0000.43
2022-11-25 10:55:00,,0835.0,4.99,0.00,22.0,20.6,00.0,31.0,23.9,09.5,0000.0,0001.01,0000.53,0000.44
2022-11-25 10:56:00,,0834.9,5.01,0.00,22.1,21.3,00.0,31.0,24.0,09.5,0000.0,0001.08,0000.56,0000.44
2022-11-25 10:57:00,,0834.9,5.00,0.00,22.2,22.2,00.0,30.9,24.2,09.4,0000.0,0001.08,0000.58,0000.44
2022-11-25 10:58:00,,0834.9,4.99,0.00,22.3,22.2,00.0,31.0,24.3,09.4,0000.0,0001.07,0000.58,0000.44
2022-11-25 10:59:00,,0834.9,5.00,0.00,22.3,21.9,00.0,31.1,24.2,09.4,0000.0,0001.06,0000.58,0000.44
